Location: Eurasberg
(48.3353°N, 11.0839°E)
Time: 05:34:12
(UTC+00:00)

Thor Agena Rocket - Pass Details

Date: 18 January 2026
Orbit: 755 x 802 km, 99.1° (Epoch: 10 February)

Event Time Altitude Azimuth Distance (km) Brightness Sun altitude
Rises 05:38:52 0° 17° (NNE) 3,247 6.8 -13.1°
Reaches altitude 10° 05:41:11 10° 20° (NNE) 2,322 6.0 -12.8°
Maximum altitude 05:46:17 68° 103° (ESE) 838 3.9 -11.9°
Drops below altitude 10° 05:51:25 10° 187° (S) 2,335 6.2 -11.1°
Sets 05:53:45 0° 190° (S) 3,266 6.9 -10.8°
